Location: New York
(40.7140°N, 74.0060°W)
Time: 11:07:41
(UTC-04:00)

ISS - Visible Passes

Search period start: 30 May 2016 00:00
Search period end: 09 June 2016 00:00
Orbit: 402 x 404 km, 51.6° (Epoch: 30 May)

Date Brightness Start Highest point End Pass type
(mag) Time Alt. Az. Time Alt. Az. Time Alt. Az.
30 May -0.2 01:20:43 10° NNW 01:22:49 16° NNE 01:24:54 10° NE visible
30 May -2.7 02:56:35 10° NW 02:59:49 56° NNE 03:03:01 10° ESE visible
30 May -1.7 04:33:53 10° W 04:35:57 16° SW 04:37:59 10° S visible
30 May -2.2 21:12:03 10° WSW 21:15:12 47° NNW 21:18:24 10° NE visible
30 May -0.1 22:50:18 10° NW 22:52:16 15° NNW 22:54:14 10° NNE visible
31 May 0.0 00:28:05 10° NNW 00:29:46 13° N 00:31:27 10° NE visible
31 May -1.2 02:03:58 10° NW 02:05:59 27° N 02:05:59 27° N visible
31 May -0.3 21:56:50 10° WNW 21:59:14 19° NNW 22:01:38 10° NNE visible
31 May 0.0 23:35:14 10° NNW 23:36:40 12° N 23:38:07 10° NNE visible
01 Jun -0.7 01:11:24 10° NNW 01:13:35 21° N 01:13:35 21° N visible
01 Jun -0.9 21:03:27 10° W 21:06:15 26° NNW 21:09:04 10° NE visible
01 Jun -0.1 22:42:03 10° NNW 22:43:34 13° N 22:45:04 10° NNE visible
02 Jun -0.5 00:18:48 10° NNW 00:21:02 17° NNE 00:21:54 15° NE visible
02 Jun -0.2 21:48:36 10° NW 21:50:27 14° N 21:52:18 10° NNE visible
02 Jun -0.2 23:26:10 10° NNW 23:27:57 14° N 23:29:44 10° NE visible
03 Jun -0.6 01:02:01 10° NW 01:03:01 17° NNW 01:03:01 17° NNW visible
03 Jun -0.4 20:55:05 10° WNW 20:57:21 17° NNW 20:59:39 10° NNE visible
03 Jun -0.2 22:33:20 10° NNW 22:34:49 12° N 22:36:18 10° NNE visible
04 Jun -1.0 00:09:23 10° NW 00:11:41 24° N 00:11:41 24° N visible
04 Jun -0.2 21:40:13 10° NNW 21:41:40 12° N 21:43:08 10° NNE visible
04 Jun -0.8 23:16:46 10° NNW 23:19:07 18° NNE 23:20:26 15° NE visible
05 Jun -0.3 00:52:41 10° NW 00:53:01 12° NW 00:53:01 12° NW visible
05 Jun -0.4 22:24:06 10° NNW 22:26:01 14° NNE 22:27:55 10° NE visible
05 Jun -1.2 23:59:57 10° NW 00:01:48 28° NNW 00:01:48 28° NNW visible
06 Jun -0.4 21:31:18 10° NNW 21:32:51 13° N 21:34:24 10° NE visible
06 Jun -1.6 23:07:16 10° NW 23:10:08 27° NNE 23:10:37 26° NE visible
07 Jun -0.9 22:14:36 10° NNW 22:17:05 19° NNE 22:19:28 10° ENE visible
07 Jun -1.2 23:50:35 10° NW 23:52:03 24° WNW 23:52:03 24° WNW visible
08 Jun -0.6 21:21:55 10° NNW 21:23:57 15° NNE 21:25:59 10° NE visible
08 Jun -2.7 22:57:46 10° NW 23:00:56 52° NNE 23:00:56 52° NNE visible
